Content
SEND FEEDBACK

Daily
Averages
Monthly
Summary
Greece

THESSALONIKI, GREECE


Home > Europe > Greece
Elevation: 13 feet     Latitude: 40 13N     Longitude: 022 58E

WEATHER
 
SELECT A DAY
Number of Records: 94,501;   Date Range: 7/3/96 - 8/31/14
 
SHARE

PRINT THIS DATA

[ ← Previous Day ]
WEATHER ALMANAC - JANUARY 16, 2013
[ Next Day → ]
[ °C ]   °F
Weather ElementAverageHighLow
Temperature55.3 °F62.6 °F (1:50 pm)48.2 °F (5:50 am)
Dewpoint42.6 °F48.2 °F (2:20 am)35.6 °F (3:20 pm)
Humidity63.1 %87 % (5:50 am)28 % (2:00 pm)
Barometer29.71 in29.89 in (12:50 am)29.56 in (8:20 pm)
Wind Speed10.5 mph18.4 mph (4:20 am)
Wind Gust26.5 mph (3:20 am)
Weather ElementAverage
Visibility6.1 mi
Wind DirectionSE (140.2 °)

Weather ElementTotal
Precipitation---
Heating Degree Days9.6 (Base 65)
Growing Degree Days5.4 (Base 50)
Averaged from 51 records on January 16, 2013
WEATHER CONDITIONS BREAKOUT
WIND DIRECTION BREAKOUT
WEATHER BY HOUR - JANUARY 16, 2013
[ °C ]   °F
Local TimeTemperatureDewpointHumidityBarometerVisibilityWind DirectionWind SpeedGust SpeedPrecipitationEventsConditions
12:50 AM55.4 °F46.4 °F72 %29.89 in6.2 miSE (130°)12.7 mphScattered Clouds
1:20 AM57.2 °F46.4 °F67 %29.89 in6.2 miSE (130°)15.0 mphScattered Clouds
1:50 AM57.2 °F46.4 °F67 %29.86 in6.2 miESE (110°)15.0 mphMostly Cloudy
2:00 AM57.0 °F47.0 °F60 %29.88 in6.0 miESE (110°)15.0 mphScattered Clouds
2:20 AM57.2 °F48.2 °F72 %29.83 in6.2 miESE (110°)13.8 mphMostly Cloudy
2:50 AM57.2 °F46.4 °F67 %29.83 in6.2 miSE (130°)15.0 mphMostly Cloudy
3:20 AM57.2 °F46.4 °F67 %29.83 in6.2 miSE (130°)15.0 mph26.5 mphMostly Cloudy
3:50 AM57.2 °F48.2 °F72 %29.80 in6.2 miSE (140°)15.0 mphMostly Cloudy
4:20 AM57.2 °F46.4 °F67 %29.83 in4.3 miSSE (150°)18.4 mphRainRain
4:50 AM51.8 °F46.4 °F82 %29.83 in6.2 miSW (230°)17.3 mphRainLight Rain
5:20 AM50.0 °F44.6 °F82 %29.83 in6.2 miVariable3.5 mphMostly Cloudy
5:50 AM48.2 °F44.6 °F87 %29.83 in6.2 miESE (110°)8.1 mphMostly Cloudy
6:20 AM50.0 °F44.6 °F82 %29.80 in6.2 miESE (110°)8.1 mphMostly Cloudy
6:50 AM50.0 °F44.6 °F82 %29.80 in6.2 miESE (110°)6.9 mphScattered Clouds
7:20 AM50.0 °F44.6 °F82 %29.80 in6.2 miEast (100°)9.2 mphPartly Cloudy
7:50 AM53.6 °F42.8 °F67 %29.80 in6.2 miSSE (150°)9.2 mphPartly Cloudy
8:00 AM53.0 °F43.0 °F61 %29.81 in6.0 miSSE (150°)9.2 mphPartly Cloudy
8:20 AM50.0 °F42.8 °F76 %29.80 in6.2 miEast (80°)6.9 mphPartly Cloudy
8:50 AM53.6 °F44.6 °F72 %29.80 in6.2 miSouth (190°)8.1 mphPartly Cloudy
9:20 AM53.6 °F44.6 °F72 %29.80 in6.2 miENE (70°)9.2 mphPartly Cloudy
9:50 AM57.2 °F44.6 °F63 %29.77 in6.2 miSSE (150°)6.9 mphPartly Cloudy
10:20 AM59.0 °F44.6 °F59 %29.77 in6.2 miSE (140°)9.2 mphPartly Cloudy
10:50 AM59.0 °F44.6 °F59 %29.74 in6.2 miSE (140°)6.9 mphPartly Cloudy
11:20 AM60.8 °F44.6 °F55 %29.74 in6.2 miSSE (150°)6.9 mphPartly Cloudy
11:50 AM60.8 °F44.6 °F55 %29.74 in6.2 miSSE (160°)9.2 mphPartly Cloudy
12:20 PM60.8 °F42.8 °F52 %29.71 in6.2 miSSW (200°)8.1 mphScattered Clouds
12:50 PM60.8 °F41.0 °F48 %29.71 in6.2 miSouth (170°)10.4 mphScattered Clouds
1:20 PM60.8 °F39.2 °F45 %29.68 in6.2 miSouth (170°)9.2 mphScattered Clouds
1:50 PM62.6 °F37.4 °F39 %29.68 in6.2 miSouth (180°)10.4 mphScattered Clouds
2:00 PM62.0 °F37.0 °F28 %29.70 in6.0 miSouth (180°)10.4 mphPartly Cloudy
2:20 PM60.8 °F37.4 °F42 %29.68 in6.2 miSSW (200°)11.5 mphScattered Clouds
2:50 PM60.8 °F37.4 °F42 %29.65 in6.2 miSSW (200°)13.8 mphScattered Clouds
3:20 PM60.8 °F35.6 °F39 %29.65 in6.2 miSSW (200°)13.8 mphScattered Clouds
3:50 PM60.8 °F39.2 °F45 %29.65 in6.2 miSSW (200°)11.5 mphScattered Clouds
4:20 PM59.0 °F42.8 °F55 %29.65 in6.2 miSSE (160°)11.5 mphScattered Clouds
4:50 PM57.2 °F41.0 °F55 %29.62 in6.2 miSSE (160°)11.5 mphScattered Clouds
5:20 PM55.4 °F42.8 °F63 %29.62 in6.2 miESE (120°)8.1 mphScattered Clouds
5:50 PM53.6 °F42.8 °F67 %29.62 in6.2 miESE (120°)5.8 mphScattered Clouds
6:20 PM51.8 °F41.0 °F67 %29.62 in6.2 miESE (120°)8.1 mphScattered Clouds
6:50 PM50.0 °F41.0 °F71 %29.62 in6.2 miEast (100°)6.9 mphScattered Clouds
7:20 PM51.8 °F42.8 °F71 %29.59 in6.2 miEast (100°)9.2 mphScattered Clouds
7:50 PM50.0 °F42.8 °F76 %29.59 in6.2 miESE (120°)6.9 mphScattered Clouds
8:00 PM50.0 °F42.0 °F66 %29.61 in6.0 miEast (100°)6.9 mphPartly Cloudy
8:20 PM50.0 °F42.8 °F76 %29.56 in6.2 miESE (120°)6.9 mphScattered Clouds
8:50 PM50.0 °F42.8 °F76 %29.56 in6.2 miESE (120°)9.2 mphScattered Clouds
9:20 PM50.0 °F42.8 °F76 %29.56 in6.2 miESE (120°)9.2 mphMostly Cloudy
9:50 PM51.8 °F39.2 °F62 %29.56 in6.2 miESE (120°)11.5 mphMostly Cloudy
10:20 PM53.6 °F37.4 °F54 %29.56 in6.2 miSSE (150°)12.7 mphMostly Cloudy
10:50 PM53.6 °F35.6 °F51 %29.56 in6.2 miSouth (180°)13.8 mphMostly Cloudy
11:20 PM53.6 °F35.6 °F51 %29.56 in6.2 miSouth (180°)11.5 mphMostly Cloudy
11:50 PM53.6 °F37.4 °F54 %29.56 in6.2 miSouth (180°)18.4 mphMostly Cloudy
Hourly data recorded from LGTS, located miles away from Thessaloniki, Greece







STORIES FROM OUR PARTNERS